User: anonymous   Login
Location: Contre
(49.7477°N, 2.0963°E)
Time: 17:02:00
(UTC+00:00)
Language:

NOAA 15 - Orbit

View from above orbital plane
View from above orbital plane
View from above satellite
View from above satellite

Ground track
Ground track

The orbit data is extracted from the following two-line orbital elements,

1 25338U 98030A   24149.17754017  .00000321  00000-0  15061-3 0  9995
2 25338  98.5695 176.7213 0010779  29.8974 330.2820 14.26587587354581
Epoch (UTC): 28 May 2024 04:15:39
Eccentricity: 0.0010779
inclination: 98.5695°
perigee height: 795 km
apogee height: 811 km
right ascension of ascending node: 176.7213°
argument of perigee: 29.8974°
revolutions per day: 14.26587587
mean anomaly at epoch: 330.2820°
orbit number at epoch: 35458

The dashed part of the orbit path shows where the satellite is in the earth's shadow,  

DLR